Temp_Advection
nan nan nan nan nan nan nan nan nan nan nan nan nan nan nan nan nan nan nan nan nan nan nan nan nan nan nan nan nan nan nan nan nan nan nan nan nan nan nan nan nan nan nan
nan -1 -0 -0 -0 0 0 -0 -0 -0 -0 -0 -0 -0 0 0 0 -0 -0 -0 -0 -0 -0 -0 -0 -0 -0 -0 -0 -0 -0 -0 -0 -0 -0 0 0 -0 -0 0 -0 -0 nan
nan -1 -0 -0 -0 0 0 -0 -0 0 -0 -0 -0 -0 -0 0 0 0 0 0 0 -0 -0 -0 -0 -0 -0 -0 -0 -0 -0 -0 -0 -0 -0 -0 0 0 0 0 -0 -0 nan
nan -1 -0 -0 -0 0 0 0 -0 -0 0 0 -0 -0 -0 -0 -0 0 0 0 0 0 0 -0 -0 -0 -0 -0 -0 -0 -0 -0 -0 -0 -0 -0 0 0 0 0 -0 -0 nan
nan 0 -0 -0 -0 0 0 0 0 -0 -0 -0 -0 -0 -0 -0 -0 0 0 -0 -0 -0 0 0 0 0 0 -0 -0 -0 -0 -0 0 0 -0 -0 0 -0 -0 0 -0 -0 nan
nan 0 0 -0 -0 -0 -0 0 0 0 -0 -0 0 0 0 0 0 0 0 0 0 0 -0 0 0 0 0 -0 -0 -0 -0 -0 0 0 -0 0 -0 -0 -0 -0 -0 -0 nan
nan 1 0 -0 -0 -0 -0 -0 -0 -0 -0 0 0 0 0 0 0 0 0 0 0 0 0 0 0 -0 0 -0 -0 -0 -0 -0 0 0 -0 -0 0 -0 -0 -0 -0 0 nan
nan 0 0 0 0 0 0 0 0 0 0 0 0 0 0 0 0 0 0 0 0 0 0 0 0 0 0 0 0 -0 -0 -0 -0 -0 -0 0 0 -0 -0 -0 -0 0 nan
nan 0 0 0 0 0 0 0 0 0 0 0 0 0 0 0 0 0 0 0 0 0 0 0 0 0 0 0 0 0 0 -0 -0 0 -0 0 0 -0 -0 -0 -0 -0 nan
nan -0 0 0 0 0 0 0 0 0 0 0 0 0 0 0 0 0 0 0 0 0 0 0 0 0 0 -0 0 0 0 0 0 0 -0 0 0 -0 -0 -0 -0 -0 nan
nan -0 -0 0 0 0 0 0 0 0 0 0 0 0 0 0 0 0 0 0 0 0 0 0 0 0 0 0 0 0 0 0 0 -0 0 0 -0 0 0 -0 -0 -0 nan
nan -0 -0 -0 0 -0 -0 0 0 -0 0 0 0 0 0 0 0 0 0 0 0 0 0 0 0 0 -0 0 0 0 0 0 0 0 0 0 0 0 0 -0 -0 -0 nan
nan -1 -1 -0 -0 -0 -0 -0 0 0 0 -0 0 0 0 0 0 0 0 0 0 0 0 0 0 0 0 0 0 0 0 0 0 0 0 0 0 0 0 -0 -0 -0 nan
nan -1 -0 -0 -0 -0 -0 -0 0 0 -0 0 0 0 -0 0 0 0 0 0 0 0 0 0 0 0 0 0 0 0 0 0 0 0 0 0 0 0 0 -0 -0 0 nan
nan -0 -0 -1 -1 -0 -1 -0 -0 0 0 0 0 0 0 0 0 0 0 0 0 0 0 0 0 0 -0 0 0 0 0 0 0 0 0 0 0 0 0 -0 -0 -0 nan
nan -0 -0 0 0 -0 -1 -0 -0 -0 0 0 0 0 0 0 0 0 0 0 -0 0 0 0 0 0 0 0 -0 0 0 0 0 0 0 0 0 0 0 0 0 0 nan
nan 0 1 1 0 -1 -0 0 0 -0 -0 -0 0 0 0 0 0 0 0 0 -0 0 0 1 1 0 0 -0 0 0 0 0 0 -0 0 0 0 0 0 0 0 -0 nan
nan 0 -0 1 0 0 0 0 -0 0 1 0 0 -0 0 1 0 0 0 0 1 0 0 0 1 1 1 0 -0 0 -0 -0 0 0 -0 -0 -0 0 0 0 0 0 nan
nan -0 -0 -0 -0 0 1 1 1 1 0 -0 1 1 2 1 1 0 0 0 0 1 1 0 0 0 0 0 0 -0 0 0 -0 -0 0 -0 -0 -0 0 0 0 0 nan
nan -0 0 -0 0 2 2 2 1 -0 -0 1 1 1 2 2 1 0 0 0 0 0 0 1 0 0 0 -0 -0 -0 0 0 -0 -0 -0 0 -0 -0 0 0 0 0 nan
nan 1 1 -0 1 1 0 0 0 -0 1 1 1 2 2 1 1 0 0 0 0 0 0 0 1 0 0 0 0 -0 -0 -0 -0 -0 0 0 -0 -0 1 0 -0 0 nan
nan 0 0 1 1 -0 1 2 1 1 1 1 2 1 0 1 1 1 0 -0 0 0 0 -0 0 1 1 1 1 1 -0 -1 -0 -0 -0 0 0 0 -0 -0 0 2 nan
nan 0 0 0 0 1 3 2 1 1 0 0 -0 0 1 1 1 0 0 -0 -0 -0 0 0 0 -0 0 0 2 1 -0 -0 -0 0 0 -0 0 1 2 2 1 -0 nan
nan 1 1 1 1 2 2 1 0 -0 0 1 1 1 1 1 0 0 0 -0 0 0 0 -0 0 -0 0 1 -0 2 2 0 -0 -1 0 0 -0 1 2 -0 1 2 nan
nan 1 1 1 1 1 1 1 1 1 1 1 1 0 0 0 0 -0 0 0 0 0 0 0 1 0 -1 -0 0 1 1 1 1 1 0 1 1 1 0 -2 -0 2 nan
nan nan nan nan nan nan nan nan nan nan nan nan nan nan nan nan nan nan nan nan nan nan nan nan nan nan nan nan nan nan nan nan nan nan nan nan nan nan nan nan nan nan nan
Wind_Speed
28 28 28 26 24 22 20 21 20 20 20 21 21 21 20 19 18 17 16 15 15 14 14 14 14 13 12 12 12 12 14 16 17 17 16 14 13 12 12 10 9 9 9
29 30 29 27 25 23 20 20 19 19 19 19 19 18 18 17 16 15 15 14 13 13 13 13 13 13 12 12 12 13 14 14 13 14 14 13 13 10 9 9 9 9 8
26 29 30 28 26 23 21 19 18 18 18 17 17 16 15 15 14 13 13 13 12 12 12 12 11 11 11 11 12 12 11 10 9 9 9 11 11 9 9 9 8 8 8
26 28 29 28 26 24 21 19 18 17 16 16 15 14 13 13 12 11 11 11 10 10 9 9 9 9 9 10 10 10 9 8 7 6 7 7 8 10 9 8 8 8 7
25 27 28 28 25 24 21 19 18 17 15 14 14 13 12 11 10 9 9 9 9 9 9 8 8 8 8 9 9 10 9 8 5 3 2 3 4 7 10 9 9 8 7
25 27 28 27 25 23 20 18 17 16 15 14 13 12 11 11 10 9 8 8 7 7 6 6 7 7 7 8 9 10 10 8 5 3 3 2 1 4 10 10 8 7 6
23 25 26 26 25 22 21 19 17 16 15 14 13 12 11 10 10 9 9 8 8 7 7 7 6 6 6 6 8 10 11 12 9 8 9 5 4 4 9 10 9 6 5
15 22 26 26 24 22 21 19 17 15 14 14 14 13 12 11 10 10 9 9 9 8 8 8 8 7 7 6 6 9 12 14 12 11 9 7 7 7 12 11 10 8 5
14 17 27 26 25 23 21 19 18 17 15 14 13 13 13 12 12 11 11 10 10 10 10 10 10 9 9 8 8 8 10 13 15 14 11 11 10 11 12 13 11 11 8
15 15 28 27 25 25 24 22 21 19 17 16 14 14 14 14 13 13 13 12 12 12 12 12 12 11 11 10 10 10 11 12 14 19 16 15 14 14 13 16 15 14 11
17 18 28 27 26 25 23 23 21 19 17 17 16 16 16 15 15 14 14 13 13 13 13 14 14 14 14 13 13 13 13 12 14 17 20 20 18 16 15 17 17 17 15
22 24 26 28 28 27 26 24 23 22 22 21 20 18 17 17 16 15 15 15 15 16 16 16 17 17 17 16 16 16 16 14 17 17 20 24 21 18 18 20 19 19 19
17 22 26 26 27 30 29 28 28 26 24 24 23 21 20 20 19 19 19 19 19 19 20 20 19 19 19 19 19 19 19 18 19 17 21 22 22 20 18 20 21 21 21
19 18 20 24 27 30 32 31 30 29 28 27 26 24 24 24 23 23 22 22 22 21 21 21 22 22 22 22 22 23 23 23 22 20 19 23 22 21 20 23 24 24 22
19 19 22 23 26 28 32 33 33 33 32 30 29 28 28 28 27 26 26 25 26 24 23 23 23 21 22 24 25 24 23 22 23 24 22 24 24 24 24 25 26 26 24
21 22 23 26 25 27 28 32 34 33 33 32 31 31 30 31 31 30 30 30 29 27 26 24 24 23 21 21 22 24 25 22 21 23 26 27 27 28 29 26 28 28 27
32 28 31 32 32 30 27 24 28 30 31 32 32 29 27 25 26 27 29 32 32 30 27 26 26 26 26 25 27 25 26 25 25 24 24 25 28 32 36 35 31 30 30
42 42 37 38 38 35 34 31 29 25 26 28 29 28 27 27 25 23 25 26 26 29 29 28 28 29 31 31 30 30 30 29 29 31 31 31 31 30 33 36 36 33 31
45 50 48 45 44 41 37 36 33 31 29 27 28 28 29 27 27 27 27 25 25 26 29 32 32 33 34 35 36 36 35 35 35 35 37 37 37 34 34 33 35 33 33
31 46 49 48 45 46 43 41 38 35 32 30 31 32 32 31 30 29 29 29 28 30 31 33 35 36 37 38 39 41 43 44 44 45 44 42 44 44 41 38 36 38 38
30 24 45 49 49 53 49 47 44 41 36 34 33 33 34 34 34 34 31 31 33 33 35 36 37 38 40 39 40 44 45 47 47 48 48 47 46 45 42 45 46 42 43
29 26 26 39 46 51 53 51 46 40 36 35 34 37 36 36 36 34 37 37 37 37 37 38 38 40 42 42 44 42 42 42 47 45 45 50 50 48 48 47 51 52 49
31 26 26 26 36 43 53 52 46 40 37 34 31 30 34 39 40 38 36 36 37 38 41 41 41 42 42 43 42 37 18 25 33 37 35 38 39 47 50 41 30 36 33
22 22 22 23 26 35 48 51 48 43 36 29 19 18 18 22 25 27 28 30 32 37 41 42 43 45 42 43 40 45 48 48 41 38 39 36 37 39 37 20 39 41 45
18 16 18 25 27 35 39 45 44 39 30 22 16 11 10 11 15 18 22 27 31 36 40 41 45 50 48 42 41 48 50 47 49 52 40 36 35 30 21 30 36 41 42
19 20 19 20 25 31 33 39 37 30 21 16 13 13 13 15 17 19 17 19 23 27 31 32 36 41 44 45 47 49 49 38 38 40 41 39 45 41 35 38 39 38 31
Wind_Direction
179 177 168 164 158 152 146 141 141 142 142 142 142 144 144 143 140 137 133 130 125 124 123 122 122 120 119 120 112 104 101 100 93 87 74 66 58 61 72 76 77 79 83
171 175 170 168 164 157 153 149 148 147 149 148 148 147 145 143 142 138 135 132 131 132 132 130 129 128 129 125 116 112 105 104 97 88 79 68 62 53 63 71 68 70 74
180 177 173 173 169 164 159 158 156 155 155 155 154 154 151 148 145 143 142 141 141 142 139 137 137 135 132 129 128 124 117 111 106 97 81 73 53 47 54 69 74 71 64
181 180 176 179 173 170 167 165 163 162 162 163 161 160 159 156 153 151 149 148 149 148 146 146 143 139 135 138 141 141 131 116 105 104 94 63 47 30 34 55 65 65 63
184 182 180 181 178 175 173 171 170 169 168 169 170 171 169 167 165 164 163 161 161 162 163 161 159 156 150 148 157 156 152 144 142 133 110 59 52 15 12 20 40 53 58
179 182 183 182 182 181 178 176 175 175 174 175 177 179 181 180 179 180 179 178 181 184 183 184 183 180 170 163 166 174 170 166 184 225 237 246 154 352 336 356 9 31 46
179 182 183 183 184 183 181 180 181 183 183 182 183 188 192 195 196 195 196 198 202 202 202 208 212 209 202 189 182 186 189 186 202 228 264 259 243 293 318 336 344 357 22
191 188 187 184 184 184 184 185 185 187 192 193 192 195 200 205 208 210 213 216 218 218 222 223 226 228 228 224 211 204 202 201 210 225 250 250 239 266 294 312 321 324 332
194 205 192 190 187 187 189 189 191 192 198 201 202 204 208 212 216 220 223 226 231 233 235 237 239 239 235 236 239 234 225 221 221 227 252 254 249 252 282 296 305 306 307
193 204 196 195 198 194 194 196 198 199 203 206 208 213 217 220 223 228 231 234 235 239 242 245 244 245 247 248 248 250 246 236 223 226 243 251 253 256 266 284 290 290 288
196 194 199 203 203 206 206 204 204 209 212 216 218 221 225 229 233 237 242 244 247 248 249 252 256 256 254 252 252 254 254 249 239 232 243 240 247 253 260 273 284 287 282
197 195 200 207 211 212 214 216 218 217 218 221 224 228 235 239 241 244 248 251 253 254 255 255 257 260 261 262 260 258 259 255 246 238 237 237 245 254 256 260 277 284 277
196 202 203 206 212 218 219 220 222 225 228 231 231 232 236 240 242 245 247 249 253 255 256 258 260 262 265 266 265 263 263 258 247 247 236 233 243 253 256 259 275 279 277
204 209 211 213 214 218 222 224 228 231 232 234 239 239 239 241 243 245 248 249 252 255 258 259 261 264 264 265 265 264 261 259 250 251 231 237 248 251 257 264 268 272 277
212 216 218 215 218 219 221 223 227 230 233 237 240 242 244 247 247 248 249 250 252 254 255 256 259 264 265 262 263 261 261 258 251 252 243 240 252 253 254 258 259 268 273
221 225 224 225 219 218 223 227 227 231 233 236 239 243 247 247 248 251 253 253 254 253 254 256 257 260 265 265 262 262 259 258 257 257 257 253 254 255 257 256 255 261 267
222 228 232 230 225 216 217 226 231 231 234 236 237 239 242 246 248 250 252 254 256 256 256 257 258 258 259 260 263 263 264 263 261 263 267 268 267 262 257 257 255 258 265
230 228 233 234 233 229 222 219 223 227 231 234 235 235 238 245 246 247 251 253 259 257 257 257 258 261 262 262 265 267 269 270 270 268 266 271 270 267 262 257 258 262 262
238 235 232 233 234 234 231 226 226 230 233 238 240 244 244 245 252 255 256 261 263 266 265 262 263 263 264 266 270 273 271 269 270 272 266 262 266 267 266 264 256 255 257
241 240 239 233 234 234 232 230 227 228 234 242 247 248 251 252 255 258 263 267 271 270 268 267 266 268 267 269 270 271 274 274 272 272 268 264 264 264 263 261 259 254 256
246 248 240 236 232 229 227 230 228 228 231 237 244 250 254 256 258 260 264 269 272 271 275 274 273 270 268 267 269 271 271 271 272 271 270 266 264 264 267 267 261 257 257
243 247 243 238 233 232 231 233 231 232 232 237 242 244 248 251 255 258 262 264 269 274 274 275 277 272 271 269 263 264 269 275 271 271 272 269 267 267 268 269 272 260 254
245 246 236 234 233 235 232 231 230 232 235 236 241 247 250 251 253 256 261 263 268 272 275 277 277 278 276 277 272 259 266 261 282 280 275 268 262 261 259 261 279 294 266
227 223 219 221 227 229 229 231 229 231 234 242 258 264 266 257 255 257 263 270 273 275 275 279 282 281 281 280 283 279 264 257 265 280 274 268 261 252 248 274 297 276 255
217 215 210 219 225 226 227 229 228 231 237 246 263 275 279 276 272 273 272 273 275 276 278 280 282 278 280 280 277 279 274 269 266 255 261 265 257 247 261 287 277 264 260
225 230 222 215 221 232 229 227 228 232 237 245 259 262 269 270 272 271 276 277 282 282 283 284 286 284 283 282 281 279 274 263 267 257 254 255 258 257 271 303 267 264 262
Height
1527 1532 1534 1536 1537 1538 1539 1539 1541 1542 1543 1543 1543 1544 1545 1545 1545 1546 1547 1547 1547 1548 1549 1549 1550 1551 1551 1552 1552 1551 1552 1552 1551 1551 1550 1550 1550 1550 1549 1548 1548 1548 1547
1525 1529 1532 1534 1537 1538 1539 1540 1541 1542 1543 1543 1544 1544 1545 1546 1546 1547 1548 1548 1549 1550 1550 1550 1551 1551 1552 1553 1553 1552 1553 1552 1552 1552 1552 1552 1551 1551 1551 1550 1549 1548 1548
1526 1529 1531 1533 1535 1537 1538 1540 1541 1542 1543 1544 1544 1545 1546 1547 1548 1548 1549 1549 1550 1550 1551 1551 1551 1552 1553 1553 1553 1553 1553 1553 1553 1553 1553 1553 1553 1553 1552 1551 1550 1549 1548
1525 1528 1530 1533 1534 1536 1538 1539 1541 1542 1544 1545 1545 1546 1546 1547 1548 1549 1550 1550 1551 1551 1552 1552 1553 1553 1554 1554 1554 1554 1554 1553 1553 1552 1553 1553 1553 1553 1552 1551 1550 1549 1549
1522 1526 1530 1533 1536 1536 1538 1539 1540 1542 1544 1545 1546 1547 1547 1548 1549 1550 1550 1551 1551 1552 1552 1553 1553 1554 1555 1555 1555 1555 1554 1554 1553 1552 1552 1552 1552 1553 1553 1551 1550 1549 1549
1521 1524 1528 1531 1534 1537 1539 1540 1541 1543 1543 1545 1546 1547 1548 1548 1549 1550 1551 1552 1552 1552 1553 1553 1554 1554 1555 1555 1556 1555 1555 1555 1553 1552 1552 1552 1551 1552 1553 1552 1550 1549 1549
1522 1524 1526 1530 1532 1535 1536 1538 1539 1541 1543 1544 1545 1546 1547 1549 1549 1550 1551 1552 1552 1552 1553 1553 1554 1555 1555 1555 1555 1555 1555 1555 1554 1553 1551 1551 1551 1551 1552 1551 1551 1550 1549
1520 1523 1526 1528 1530 1533 1535 1537 1539 1540 1542 1543 1544 1545 1547 1548 1549 1550 1551 1551 1552 1552 1552 1553 1553 1553 1554 1554 1555 1555 1554 1554 1553 1552 1551 1551 1551 1551 1552 1551 1550 1550 1549
1520 1523 1524 1527 1528 1530 1533 1535 1537 1539 1541 1542 1543 1544 1546 1547 1548 1549 1549 1550 1551 1551 1552 1552 1552 1552 1552 1552 1553 1553 1553 1553 1552 1551 1550 1550 1550 1550 1551 1551 1550 1549 1549
1517 1519 1522 1525 1529 1529 1530 1531 1533 1535 1538 1540 1542 1543 1544 1546 1547 1548 1548 1548 1549 1550 1550 1550 1550 1550 1550 1550 1550 1550 1551 1551 1551 1550 1549 1548 1548 1549 1549 1549 1549 1548 1547
1515 1516 1520 1522 1523 1527 1529 1529 1531 1534 1536 1538 1540 1541 1543 1544 1546 1546 1547 1547 1548 1548 1548 1548 1548 1548 1548 1547 1547 1547 1547 1548 1548 1547 1546 1546 1545 1546 1546 1546 1546 1545 1544
1510 1513 1515 1518 1521 1523 1525 1528 1529 1530 1531 1533 1536 1538 1541 1543 1544 1545 1545 1545 1546 1546 1546 1546 1546 1546 1546 1545 1545 1544 1544 1544 1544 1544 1543 1543 1543 1543 1543 1543 1543 1543 1542
1507 1510 1511 1513 1516 1519 1520 1523 1525 1527 1529 1531 1531 1533 1535 1537 1538 1539 1540 1541 1542 1542 1543 1543 1542 1542 1543 1543 1542 1541 1541 1541 1540 1539 1539 1540 1540 1540 1539 1540 1540 1540 1540
1502 1504 1507 1508 1509 1512 1515 1517 1520 1523 1524 1526 1529 1530 1530 1530 1532 1533 1534 1535 1536 1537 1538 1539 1539 1538 1538 1538 1538 1538 1537 1537 1536 1536 1535 1536 1536 1535 1535 1535 1536 1536 1536
1498 1499 1502 1504 1505 1506 1508 1511 1513 1515 1518 1521 1522 1524 1525 1527 1527 1528 1528 1528 1529 1531 1532 1533 1534 1534 1533 1533 1532 1532 1531 1531 1532 1531 1531 1531 1531 1530 1530 1530 1532 1532 1531
1493 1494 1495 1498 1499 1501 1502 1504 1507 1508 1511 1514 1516 1518 1520 1520 1521 1523 1524 1524 1524 1525 1527 1528 1528 1529 1529 1529 1528 1527 1526 1527 1527 1526 1526 1525 1525 1525 1525 1526 1527 1527 1527
1487 1488 1490 1492 1495 1494 1495 1498 1500 1503 1506 1508 1509 1512 1514 1516 1517 1518 1519 1520 1520 1521 1522 1522 1523 1524 1523 1523 1523 1523 1523 1523 1523 1523 1522 1521 1520 1519 1519 1519 1520 1520 1520
1480 1481 1483 1486 1488 1490 1491 1492 1493 1495 1498 1501 1504 1506 1508 1510 1512 1513 1515 1515 1516 1517 1517 1516 1517 1517 1518 1518 1517 1517 1518 1518 1518 1518 1518 1517 1516 1515 1514 1514 1515 1515 1515
1472 1473 1476 1478 1481 1484 1486 1488 1490 1493 1495 1496 1498 1499 1501 1504 1508 1510 1510 1512 1514 1514 1514 1514 1513 1513 1512 1512 1513 1512 1511 1510 1511 1512 1510 1509 1508 1508 1507 1507 1506 1507 1507
1464 1465 1465 1469 1472 1476 1481 1484 1487 1488 1491 1492 1493 1495 1496 1499 1502 1504 1505 1507 1509 1511 1509 1510 1510 1510 1510 1509 1509 1507 1507 1506 1506 1504 1502 1502 1501 1499 1498 1497 1498 1499 1500
1457 1458 1458 1460 1464 1468 1470 1473 1477 1479 1483 1487 1488 1490 1492 1494 1496 1498 1499 1502 1504 1504 1505 1505 1504 1505 1504 1506 1506 1501 1499 1499 1498 1495 1494 1495 1494 1495 1496 1493 1492 1493 1493
1450 1452 1453 1454 1456 1459 1462 1464 1470 1475 1478 1481 1484 1487 1489 1490 1491 1493 1495 1497 1498 1499 1499 1499 1498 1497 1496 1496 1496 1495 1490 1486 1482 1483 1483 1485 1486 1487 1486 1485 1484 1479 1479
1444 1445 1446 1448 1450 1453 1456 1460 1466 1472 1475 1478 1480 1482 1482 1485 1486 1488 1489 1491 1492 1493 1492 1492 1493 1490 1488 1489 1488 1491 1488 1479 1477 1474 1474 1472 1472 1474 1473 1474 1473 1455 1455
1437 1439 1441 1443 1445 1448 1451 1454 1458 1463 1469 1473 1476 1477 1479 1481 1482 1484 1485 1485 1485 1485 1484 1486 1485 1483 1483 1483 1482 1477 1474 1473 1473 1469 1463 1460 1460 1459 1459 1464 1460 1457 1461
1433 1434 1437 1440 1442 1443 1446 1450 1456 1461 1466 1473 1475 1473 1475 1476 1478 1479 1480 1481 1480 1479 1478 1477 1478 1476 1474 1474 1473 1470 1466 1464 1463 1461 1455 1453 1448 1444 1443 1450 1447 1445 1451
1430 1430 1433 1436 1439 1440 1443 1448 1454 1460 1465 1466 1470 1472 1472 1473 1474 1475 1475 1475 1475 1474 1472 1472 1471 1469 1468 1467 1464 1461 1459 1458 1454 1451 1447 1445 1440 1439 1433 1436 1441 1439 1438